Gage, OK

12:04 AM CST on February 21, 2018 (GMT -0600)
Gage

Weather History for KGAG - March, 2013

Change the Weather History Date:

Sunday, March 10, 2013

  Actual Average Record
Temperature  
Mean Temperature 34 °F -  
Max Temperature 42 °F 61 °F 94 °F (1989)
Min Temperature 27 °F 34 °F -3 °F (1948)
Degree Days  
Heating Degree Days 30    
Moisture  
Dew Point 25 °F    
Average Humidity 69    
Maximum Humidity 93    
Minimum Humidity 38    
Precipitation  
Precipitation 0.00 in - - ()
Sea Level Pressure  
Sea Level Pressure 29.94 in    
Wind  
Wind Speed 20 mph (NNW)    
Max Wind Speed 33 mph    
Max Gust Speed 46 mph    
Visibility 10 miles    
Events      
Averages and records for this station are not official NWS values.
T = Trace of Precipitation, MM = Missing Value Source: NWS Daily Summary

Daily Weather History Graph

Daily Weather History Graph

Search for Another Location

Airport or City:

Trip Planner

Search our weather history database for the weather conditions in past years. The results will help you decide how hot, cold, wet, or windy it might be!

Date:

Astronomy

Mar. 10, 2013 Rise Set
Actual Time 7:56 AM CDT 7:42 PM CDT
Civil Twilight 7:31 AM CDT 8:08 PM CDT
Nautical Twilight 7:01 AM CDT 8:37 PM CDT
Astronomical Twilight 6:31 AM CDT 9:07 PM CDT
Moon 6:56 AM CDT (3/10) 6:52 PM CDT (3/10)
Length of Visible Light 12h 37m
Length of Day
11h 45m
Waning Crescent, 2% of the Moon is Illuminated
Mar 10
Waning Crescent
Mar 11
New
Mar 19
First Quarter
Mar 27
Full
Apr 2
Last Quarter

Hourly Weather History & Observations

Time (CDT) Temp. Windchill Dew Point Humidity Pressure Visibility Wind Dir Wind Speed Gust Speed Precip Events Conditions
12:53 AM 39.0 °F 31.8 °F 32.0 °F 76% 29.74 in 10.0 mi NW 11.5 mph - N/A   Overcast
1:53 AM 36.0 °F 26.3 °F 34.0 °F 93% 29.76 in 9.0 mi NW 16.1 mph 23.0 mph N/A   Overcast
3:09 AM 35.6 °F 26.2 °F 33.8 °F 93% 29.78 in 9.0 mi NW 15.0 mph 23.0 mph N/A   Overcast
3:53 AM 35.6 °F 24.8 °F 33.8 °F 93% 29.79 in 5.0 mi NNW 19.6 mph 26.5 mph N/A   Overcast
4:22 AM 33.8 °F 22.8 °F 32.0 °F 93% 29.78 in 10.0 mi NNW 18.4 mph 29.9 mph 0.00 in   Overcast
4:44 AM 33.8 °F 20.3 °F 30.2 °F 87% 29.78 in 10.0 mi NNW 28.8 mph 36.8 mph 0.00 in   Overcast
4:53 AM 34.0 °F 21.0 °F 30.9 °F 89% 29.77 in 10.0 mi NNW 26.5 mph 40.3 mph 0.00 in   Overcast
5:14 AM 33.8 °F 19.4 °F 30.2 °F 87% 29.80 in 10.0 mi NNW 33.4 mph 38.0 mph N/A   Overcast
5:53 AM 34.0 °F 20.8 °F 28.9 °F 82% 29.81 in 10.0 mi North 27.6 mph 36.8 mph N/A   Overcast
6:53 AM 35.6 °F 22.3 °F 28.4 °F 75% 29.85 in 10.0 mi North 31.1 mph 42.6 mph N/A   Overcast
7:25 AM 35.6 °F 24.2 °F 28.4 °F 75% 29.87 in 10.0 mi NNW 21.9 mph 29.9 mph N/A   Overcast
7:32 AM 35.6 °F 24.8 °F 28.4 °F 75% 29.88 in 10.0 mi NNW 19.6 mph 28.8 mph N/A   Overcast
7:53 AM 35.1 °F 22.2 °F 27.0 °F 72% 29.88 in 10.0 mi North 27.6 mph 42.6 mph N/A   Overcast
8:53 AM 33.1 °F 18.9 °F 26.1 °F 75% 29.94 in 10.0 mi North 31.1 mph 41.4 mph N/A   Overcast
9:53 AM 32.0 °F 18.4 °F 24.1 °F 73% 30.01 in 10.0 mi North 26.5 mph 36.8 mph N/A   Overcast
10:53 AM 34.0 °F 21.3 °F 23.0 °F 64% 30.02 in 10.0 mi North 25.3 mph 46.0 mph N/A   Overcast
11:53 AM 35.1 °F 22.2 °F 21.9 °F 59% 30.02 in 10.0 mi NNW 27.6 mph 38.0 mph N/A   Overcast
12:53 PM 37.0 °F 24.5 °F 21.0 °F 52% 30.03 in 10.0 mi NNW 29.9 mph 41.4 mph N/A   Overcast
1:53 PM 39.0 °F 27.8 °F 21.0 °F 49% 30.01 in 10.0 mi NNW 26.5 mph 41.4 mph N/A   Overcast
2:53 PM 41.0 °F 30.2 °F 21.0 °F 45% 30.00 in 10.0 mi NNW 27.6 mph 39.1 mph N/A   Clear
3:53 PM 42.1 °F 31.7 °F 19.9 °F 41% 30.00 in 10.0 mi NNW 27.6 mph 42.6 mph N/A   Clear
4:53 PM 42.1 °F 32.6 °F 18.0 °F 38% 30.02 in 10.0 mi North 23.0 mph 33.4 mph N/A   Clear
5:53 PM 42.1 °F 32.8 °F 19.0 °F 40% 30.02 in 10.0 mi NNW 21.9 mph 28.8 mph N/A   Partly Cloudy
6:53 PM 39.9 °F 30.2 °F 19.9 °F 45% 30.03 in 10.0 mi NNW 20.7 mph 28.8 mph N/A   Mostly Cloudy
7:53 PM 36.0 °F 26.7 °F 19.0 °F 50% 30.06 in 10.0 mi North 15.0 mph - N/A   Partly Cloudy
8:53 PM 33.1 °F 26.1 °F 19.9 °F 59% 30.10 in 10.0 mi NNW 8.1 mph - N/A   Clear
9:53 PM 30.9 °F 22.8 °F 19.9 °F 64% 30.13 in 10.0 mi NNW 9.2 mph - N/A   Clear
10:53 PM 28.9 °F 21.9 °F 21.0 °F 72% 30.14 in 10.0 mi NW 6.9 mph - N/A   Clear
11:53 PM 27.0 °F 19.5 °F 19.9 °F 75% 30.15 in 10.0 mi WNW 6.9 mph - N/A   Clear
12:53 AM 27.0 °F 17.3 °F 18.0 °F 69% 30.13 in 10.0 mi NW 10.4 mph - N/A   Clear